Starlink 4301

decayed
NORAD ID: 52997 Int'l Des: 2022-076 Owner: SPXS Country: US Constellation: starlink
LEOCIRCULAR

关于 Starlink 4301

正在加载描述...

高度历史

Altitude vs Time

uPlot chart will show altitude changes over time

两行轨道根数

1 52997U 22076M 25035.87630124 .19724944 12460-4 30925-3 0 9994
2 52997 53.1934 307.9691 0007952 218.4626 184.7832 16.47851716145140
Epoch: Feb 4, 2025 • Age: 7486 hours

当前状态

Position data unavailable
发射日期 Jul 7, 2022
运行时间 3.4 years
衰减日期 Feb 5, 2025
类型 internet

技术详情

分类 Payload
质量 297.00 kg
干质量 275.00 kg
总质量 297.00 kg
长度 0.20 m
直径 2.80 m
跨度 9.00 m
形状 Box + pan
制造商 SPXS
平台类型 Starlink
阶段状态 Reentered
所有者/国家 SPXS/US

大型星座

Loading constellations...